DMSP 5D-2 F13 DEB, 40479

Orbit data source: Space-Track

DMSP 5D-2 F13 DEB, 40479 is space debris in SSO originally from a launch on Fri, 24 Mar 1995 UTC launched from the Air Force Western Test Range (AFWTR). Debris objects in space refer to the collection of defunct objects orbiting the Earth. Examples of debris include non-operational satellites, rocket bodies, and fragments generated from explosions, collisions, or faulty payload assembly.

Loading next visibility...
DMSP 5D-2 F13 DEB details
Identifier
40479, 1995-015BX
Orbit
SSO
Last TLE update1 day ago
Origin
Flag of USUSAF SMC (US)
ManufacturerUnknown
MissionSpacecraft
Bus & MotorUnknown
MassUnknown
Launch date (UTC)
1995-03-24 (30 years ago)
Launch vehicleUnknown
Launch site
Air Force Western Test Range (AFWTR)
Object type
Payload
Rocket body
Debris
Shape & HBRUnknown
Radar Cross SectionSmall (<0.1 m²)

Expand to show TLE details & history

TLE from 1 day ago
0 DMSP 5D-2 F13 DEB
1 40479U 95015BX  24359.97997421  .00002760  00000-0  12998-2 0  9991
2 40479  98.7876  12.1463 0003648 137.4627 222.6833 14.20739666506460
Epoch: 2024-12-24T23:31Z
Definitive object data (Epoch: 2024-12-24T23:31:09.771Z)
Latitude-0.00001°
Longitude-74.62471°
Altitude827.697 km
Speed7.438 km/s
True Right ascension00h 48m 35s
True Declination0° 00' 00"
Sunlit
Object was in daylight at TLE epoch
Visualization TLE readout
Latitude81.17632°
Longitude-155.26651°
Altitude834.364 km
Speed7.444 km/s
Apparent Right ascension22h 12m 32s
Apparent Declination28° 08' 48"
Sunlit
Object is in daylight
Visualization observer readout
Local Sidereal Time10:47:09
Azimuth8.196° NNE
Elevation-21.462°
Doppler factor1
Orbital elements
Apogee altitude822.64 km
Perigee altitude817.388 km
Semi-major axis7,198.151 km
Eccentricity0.0003648
Inclination98.7876°
RAAN12.1463°
Arg. of periapsis137.4627°
True anomaly222.65497°
Mean anomaly222.6833°
Eccentric anomaly222.66913°
Mean motion3.55395 °/min
BSTAR0.0012998
Orbital period101.3 mins
Loading maneuver chart data...

DMSP 5D-2 F13 DEB Visibility forecast

Observer location: undefined°, undefined

Span
Click to sort rows by Start time (UTC) header in descending order
Start Az.
Max El. time (UTC)
Max El. Az.
Max El.
End time (UTC)
End Az.
9 mins2024-12-26 13:17:48.192Z34.576° NE2024-12-26 13:21:48.192Z94.757° ESE31.467°2024-12-26 13:26:48.192Z165.465° S
7 mins2024-12-26 14:58:48.192Z339.678° N2024-12-26 15:01:48.192Z295.123° NW24.44°2024-12-26 15:05:48.192Z241.209° WSW
9 mins2024-12-27 00:39:48.192Z147.65° SSE2024-12-27 00:43:48.192Z71.654° E40.933°2024-12-27 00:48:48.192Z354.456° N
4 mins2024-12-27 02:22:48.192Z248.847° W2024-12-27 02:23:48.192Z261.715° W15.65°2024-12-27 02:26:48.192Z299.233° NW
|